Simultaneous Nadir Overpasses (SNOs) Predictions

Prediction of SNOs between NOAA-19 and TERRA Satellite Orbit:

Table of predicted SNOs for the next 14.0 days since TLE Epoch: 9/28/2024
Index Date (NOAA-19) Time (NOAA-19) Lat,Lon (NOAA-19) SZA (NOAA-19 ) Date (TERRA) Time (TERRA) Lat,Lon (TERRA) SZA (TERRA ) Distance(km) Time Diff (sec)
1 09/29/2024 11:29:42 71.35, -2.87 74.14 09/29/2024 11:30:20 71.35, -2.85 74.13 0.73 38
2 09/29/2024 12:20:14 -73.01, 167.73 104.31 09/29/2024 12:19:12 -73.00, 167.69 104.31 1.55 62
3 10/01/2024 14:28:43 70.48, -49.02 74.16 10/01/2024 14:29:54 70.47, -49.04 74.14 1.00 71
4 10/01/2024 15:19:14 -72.21, 121.39 104.24 10/01/2024 15:18:45 -72.20, 121.36 104.25 0.96 29
5 10/03/2024 18:18:18 -71.17, 74.78 104.39 10/03/2024 18:18:21 -71.19, 74.83 104.38 2.38 3
6 10/05/2024 21:17:21 -70.16, 28.42 104.51 10/05/2024 21:17:56 -70.17, 28.47 104.51 2.36 35
7 10/05/2024 22:07:36 72.11,-160.80 77.30 10/05/2024 22:06:39 72.09,-160.86 77.30 2.66 57
8 10/08/2024 00:16:21 -69.27, -17.57 104.51 10/08/2024 00:17:28 -69.26, -17.59 104.54 0.98 67
9 10/08/2024 01:06:37 71.21, 152.86 77.27 10/08/2024 01:06:11 71.20, 152.82 77.27 1.83 26



Historial Predications of SNOs between NOAA-19 and TERRA
